Regional Weather Roundup
Issued by NWS

Home | Current Version | Previous Version | Text Only | Print | Product List | Glossary Off
Versions: 1 2 3 4 5 6 7 8 9 10 11 12 13 14 15 16 17 18 19 20 21 22 23 24 25 26 27 28 29 30 31 32 33 34 35 36 37 38 39 40 41 42 43 44 45 46 47 48 49 50

000
ASUS45 KSLC 102110
RWRUT

UTAH REGIONAL WEATHER ROUNDUP
NATIONAL WEATHER SERVICE SALT LAKE CITY UT
200 PM MST SAT DEC 10 2016

UTZ001>011-023>025-102200-

NORTHERN UTAH

CITY           SKY/WX    TMP DP  RH WIND       PRES   REMARKS
BRIGHAM CITY     N/A     43  38  84 N3        29.90R
HILL AFB       NOT AVBL
LOGAN          LGT RAIN  38  37  97 NE9       29.87R WCI  31
OGDEN          LGT RAIN  44  39  82 S7        29.86F
SALT LAKE CITY LGT RAIN  49  36  61 S18       29.85F
WENDOVER       CLOUDY    43  30  61 E9        29.86F
HEBER CITY     MIX PCPN  37  37 100 CALM      29.90F

$$

UTZ011>015-024>027-102200-

CENTRAL/NORTHEAST UTAH

CITY           SKY/WX    TMP DP  RH WIND       PRES   REMARKS
PROVO AIRPORT  CLOUDY    48  37  65 E3        29.91F
MOAB/CANYONLAN CLOUDY    36  18  48 N3        30.00F
DELTA          CLOUDY    50  32  50 S24G32    29.91F
PRICE          CLOUDY    35  18  49 SE5       30.00F WCI  31
RICHFIELD      CLOUDY    52  30  43 SW12      29.95F
ROOSEVELT      CLOUDY    34  25  69 E3        29.95F
VERNAL         CLOUDY    33  23  66 CALM      29.93F

$$

UTZ013>016-019>022-027-102200-

SOUTHERN UTAH

CITY           SKY/WX    TMP DP  RH WIND       PRES   REMARKS
BRYCE CANYON   PTSUNNY   39  30  70 SE10      30.06F WCI  32
CEDAR CITY     PTSUNNY   49  34  56 SW22G28   30.03F
MILFORD        PTSUNNY   51  35  54 S29G37    29.97F
ST GEORGE      CLOUDY    54  34  47 CALM      30.09F
HANKSVILLE     CLOUDY    34  14  44 CALM      30.04F
KANAB          CLOUDY    52  37  58 SW5       30.12F
BLANDING       PTSUNNY   44  28  52 S6        30.14F

$$

REGIONAL REPORTS     COLORADO/ARIZONA

CITY           SKY/WX    TMP DP  RH WIND       PRES   REMARKS
CRAIG, CO      LGT RAIN  42  30  62 SW16      29.88F
GRAND JUNCTION CLOUDY    34  25  69 W3        30.01F
RIFLE, CO      CLOUDY    32  25  75 CALM      30.00F
MONTROSE, CO   CLOUDY    45  27  49 CALM      30.01F
CORTEZ, CO     CLOUDY    50  29  44 S8        30.06F
COLORADO CITY  CLOUDY    52  37  58 MISG      30.11F
PAGE, AZ       SUNNY     49  22  34 SE7       30.05F
GRAND CANYON   SUNNY     53  34  48 SW12G26   30.11F
KINGMAN, AZ    MOSUNNY   62  36  37 SW18      30.07F
FLAGSTAFF, AZ  SUNNY     50  30  46 SW16G24   30.14F

$$

REGIONAL REPORTS    NEVADA/IDAHO/WYOMING

CITY           SKY/WX    TMP DP  RH WIND       PRES   REMARKS
LAS VEGAS, NV  MOSUNNY   57  19  22 CALM      30.05F
ELY, NY        CLOUDY    44  29  55 CALM      29.98F
ELKO, NV       LGT RAIN  42  40  92 SW7       29.88F
POCATELLO, ID  CLOUDY    38  35  89 SW16      29.82S WCI  29
BURLEY, ID     CLOUDY    38  37  97 SW9       29.84S WCI  31
FORT BRIDGER,    N/A     40  37  90 W29G38    29.83S WCI  28
EVANSTON, WY   LGT SNOW  33  31  92 SW20      29.84F VSB 3/4 WCI  21
ROCK SPRINGS,  CLOUDY    39  32  76 W17       29.78F WCI  30
KEMMERER, WY     N/A     34  32  93 W17G24    29.80S WCI  23

$$



USA.gov is the U.S. government's official web portal to all federal, state and local government web resources and services.